CNH67B UKFF-UGTB

Flight info

Callsign CNH67B
Flight time N/A
Altitude 35000
Route DCT
Aircraft IL76/H-SDFGRWY/S

Departure

Time 2026-04-25 19:31
Airport Simferopol International Airport (UKFF)

Arrival

Time N/A
Airport Tbilisi International Airport (UGTB)
Time Latitude Longitude Altitude Speed Heading
2026-04-25 19:20 45.03407 33.97399 609 ft 0 kts 17°
2026-04-25 19:21 45.03516 33.97372 609 ft 11 kts 301°
2026-04-25 19:21 45.03520 33.97347 608 ft 0 kts 272°
2026-04-25 19:22 45.03521 33.97319 608 ft 7 kts 274°
2026-04-25 19:22 45.03525 33.97198 607 ft 17 kts 271°
2026-04-25 19:22 45.03469 33.96811 600 ft 3 kts 302°
2026-04-25 19:23 45.03485 33.96796 600 ft 7 kts 344°
2026-04-25 19:23 45.03643 33.96785 603 ft 2 kts 326°
2026-04-25 19:23 45.03658 33.96780 603 ft 4 kts 16°
2026-04-25 19:24 45.03664 33.96783 603 ft 0 kts 17°
2026-04-25 19:30 45.03759 33.96823 602 ft 44 kts 17°
2026-04-25 19:30 45.04290 33.97018 596 ft 111 kts 13°
2026-04-25 19:30 45.05218 33.97329 628 ft 159 kts 13°
2026-04-25 19:30 45.06358 33.97670 1003 ft 170 kts 11°
2026-04-25 19:31 45.07502 33.97925 1474 ft 168 kts
2026-04-25 19:31 45.08731 33.98050 1775 ft 180 kts
2026-04-25 19:31 45.09887 33.98014 2157 ft 163 kts 353°
2026-04-25 19:31 45.11063 33.97778 2467 ft 186 kts 345°
2026-04-25 19:32 45.12344 33.96975 2725 ft 214 kts 320°
2026-04-25 19:32 45.13420 33.95494 3322 ft 226 kts 302°
2026-04-25 19:32 45.14069 33.93460 3867 ft 233 kts 282°
2026-04-25 19:32 45.14258 33.91948 4258 ft 236 kts 277°
2026-04-25 19:33 45.14612 33.88833 4043 ft 235 kts 277°
2026-04-25 19:33 45.14869 33.86556 4039 ft 234 kts 277°
2026-04-25 19:33 45.15382 33.84392 4021 ft 239 kts 306°
2026-04-25 19:33 45.16763 33.83093 4074 ft 246 kts 339°
2026-04-25 19:34 45.18409 33.82399 4046 ft 243 kts 342°
2026-04-25 19:34 45.19989 33.81771 4026 ft 229 kts 342°
2026-04-25 19:34 45.21489 33.81185 4013 ft 217 kts 342°
2026-04-25 19:34 45.22941 33.80622 4025 ft 215 kts 342°
2026-04-25 19:35 45.24378 33.80065 4027 ft 215 kts 342°